AAL202 KPWM-KCLT

Flight info

Callsign AAL202
Flight time 1h 52m
Altitude 34000
Route NELIE Q75 GVE AIROW CHSLY6
Aircraft A321/M-SDE3FGHIRWY/LB1

Departure

Time 2026-05-03 23:36
Airport Portland International Jetport (KPWM)

Arrival

Time 2026-05-04 01:28
Airport Charlotte Douglas International Airport (KCLT)
Time Latitude Longitude Altitude Speed Heading
2026-05-03 23:15 43.64672 -70.31061 62 ft 0 kts
2026-05-03 23:28 43.64671 -70.31061 62 ft 0 kts
2026-05-03 23:28 43.64665 -70.31062 62 ft 2 kts
2026-05-03 23:29 43.64650 -70.31064 62 ft 2 kts
2026-05-03 23:29 43.64636 -70.31070 62 ft 2 kts 26°
2026-05-03 23:29 43.64623 -70.31080 62 ft 2 kts 39°
2026-05-03 23:29 43.64612 -70.31095 62 ft 2 kts 53°
2026-05-03 23:30 43.64604 -70.31113 62 ft 2 kts 66°
2026-05-03 23:30 43.64600 -70.31126 63 ft 2 kts 76°
2026-05-03 23:30 43.64598 -70.31151 63 ft 0 kts 92°
2026-05-03 23:30 43.64599 -70.31160 63 ft 1 kts 95°
2026-05-03 23:31 43.64599 -70.31161 63 ft 0 kts 95°
2026-05-03 23:32 43.64598 -70.31152 63 ft 5 kts 95°
2026-05-03 23:32 43.64593 -70.31067 62 ft 11 kts 95°
2026-05-03 23:33 43.64586 -70.30947 59 ft 14 kts 94°
2026-05-03 23:33 43.64577 -70.30798 56 ft 16 kts 95°
2026-05-03 23:33 43.64567 -70.30628 53 ft 18 kts 95°
2026-05-03 23:33 43.64556 -70.30440 48 ft 19 kts 75°
2026-05-03 23:34 43.64582 -70.30267 45 ft 18 kts 85°
2026-05-03 23:34 43.64577 -70.30081 41 ft 18 kts 96°
2026-05-03 23:34 43.64569 -70.29971 39 ft 1 kts 102°
2026-05-03 23:34 43.64546 -70.29932 39 ft 7 kts 152°
2026-05-03 23:35 43.64477 -70.29918 38 ft 11 kts 177°
2026-05-03 23:35 43.64415 -70.29963 39 ft 10 kts 257°
2026-05-03 23:35 43.64415 -70.30059 41 ft 9 kts 276°
2026-05-03 23:35 43.64428 -70.30227 44 ft 45 kts 275°
2026-05-03 23:36 43.64483 -70.31027 61 ft 119 kts 274°
2026-05-03 23:36 43.64541 -70.32462 155 ft 169 kts 276°
2026-05-03 23:36 43.64632 -70.34092 957 ft 171 kts 281°
2026-05-03 23:36 43.64774 -70.35721 1877 ft 170 kts 281°
2026-05-03 23:37 43.64891 -70.37323 2528 ft 163 kts 281°
2026-05-03 23:37 43.64716 -70.38914 2917 ft 179 kts 247°
2026-05-03 23:37 43.63816 -70.40259 3205 ft 196 kts 231°
2026-05-03 23:37 43.62764 -70.41618 3460 ft 210 kts 231°
2026-05-03 23:38 43.61640 -70.43103 3642 ft 230 kts 231°
2026-05-03 23:38 43.60419 -70.44753 3993 ft 246 kts 232°
2026-05-03 23:38 43.59137 -70.46513 4332 ft 262 kts 232°
2026-05-03 23:38 43.57809 -70.48344 4937 ft 267 kts 232°
2026-05-03 23:39 43.56454 -70.50214 5650 ft 268 kts 232°
2026-05-03 23:39 43.55107 -70.52082 6323 ft 270 kts 232°
2026-05-03 23:39 43.53748 -70.53975 6973 ft 273 kts 232°
2026-05-03 23:39 43.52384 -70.55880 7608 ft 276 kts 232°
2026-05-03 23:40 43.51021 -70.57785 8253 ft 278 kts 232°
2026-05-03 23:40 43.49626 -70.59734 8891 ft 280 kts 232°
2026-05-03 23:40 43.48237 -70.61672 9509 ft 282 kts 232°
2026-05-03 23:40 43.46831 -70.63632 10102 ft 285 kts 231°
2026-05-03 23:41 43.45400 -70.65629 10501 ft 295 kts 231°
2026-05-03 23:41 43.43931 -70.67680 10764 ft 308 kts 231°
2026-05-03 23:41 43.42344 -70.69894 11035 ft 322 kts 230°
2026-05-03 23:41 43.40682 -70.72207 11321 ft 335 kts 230°
2026-05-03 23:42 43.39002 -70.74537 11825 ft 340 kts 230°
2026-05-03 23:42 43.37318 -70.76868 12401 ft 341 kts 230°
2026-05-03 23:42 43.35593 -70.79256 12945 ft 344 kts 230°
2026-05-03 23:42 43.33850 -70.81668 13484 ft 347 kts 230°
2026-05-03 23:43 43.32102 -70.84086 13994 ft 350 kts 230°
2026-05-03 23:43 43.30341 -70.86522 14519 ft 353 kts 230°
2026-05-03 23:43 43.28531 -70.89020 15051 ft 355 kts 230°
2026-05-03 23:43 43.26728 -70.91509 15553 ft 358 kts 230°
2026-05-03 23:44 43.24912 -70.94014 16044 ft 361 kts 231°
2026-05-03 23:44 43.23106 -70.96499 16514 ft 364 kts 231°
2026-05-03 23:44 43.21253 -70.99052 16996 ft 367 kts 231°
2026-05-03 23:44 43.19405 -71.01597 17449 ft 370 kts 231°
2026-05-03 23:45 43.17538 -71.04163 17913 ft 372 kts 231°
2026-05-03 23:45 43.15658 -71.06745 18371 ft 374 kts 231°
2026-05-03 23:45 43.13783 -71.09319 18843 ft 376 kts 231°
2026-05-03 23:45 43.11902 -71.11900 19279 ft 378 kts 231°
2026-05-03 23:46 43.09997 -71.14510 19716 ft 380 kts 231°
2026-05-03 23:46 43.08080 -71.17133 20140 ft 382 kts 231°
2026-05-03 23:46 43.06119 -71.19814 20572 ft 384 kts 231°
2026-05-03 23:46 43.04183 -71.22458 20994 ft 385 kts 231°
2026-05-03 23:47 43.02212 -71.25149 21399 ft 387 kts 231°
2026-05-03 23:47 43.00237 -71.27844 21788 ft 390 kts 231°
2026-05-03 23:47 42.98263 -71.30530 22165 ft 392 kts 231°
2026-05-03 23:47 42.96272 -71.33238 22525 ft 394 kts 231°
2026-05-03 23:48 42.94241 -71.35998 22898 ft 396 kts 231°
2026-05-03 23:48 42.92207 -71.38760 23298 ft 397 kts 231°
2026-05-03 23:48 42.90170 -71.41522 23692 ft 398 kts 231°
2026-05-03 23:48 42.88177 -71.44221 24042 ft 399 kts 231°
2026-05-03 23:49 42.86184 -71.46923 24344 ft 401 kts 231°
2026-05-03 23:49 42.84176 -71.49642 24641 ft 403 kts 231°
2026-05-03 23:49 42.82122 -71.52418 24936 ft 405 kts 231°
2026-05-03 23:49 42.80053 -71.55212 25214 ft 407 kts 231°
2026-05-03 23:50 42.77977 -71.58013 25474 ft 409 kts 231°
2026-05-03 23:50 42.76586 -71.59888 25680 ft 409 kts 231°
2026-05-03 23:50 42.73778 -71.63665 26076 ft 410 kts 230°
2026-05-03 23:50 42.71695 -71.66467 26334 ft 412 kts 230°
2026-05-03 23:51 42.69634 -71.69233 26591 ft 414 kts 230°
2026-05-03 23:51 42.67558 -71.72019 26841 ft 415 kts 230°
2026-05-03 23:51 42.66152 -71.73905 27006 ft 416 kts 230°
2026-05-03 23:51 42.63280 -71.77750 27367 ft 418 kts 230°
2026-05-03 23:52 42.61168 -71.80574 27629 ft 419 kts 230°
2026-05-03 23:52 42.59036 -71.83422 27881 ft 420 kts 230°
2026-05-03 23:52 42.56877 -71.86305 28106 ft 421 kts 230°
2026-05-03 23:52 42.54731 -71.89168 28345 ft 423 kts 230°
2026-05-03 23:53 42.52530 -71.92102 28586 ft 424 kts 230°
2026-05-03 23:53 42.50321 -71.95042 28826 ft 425 kts 229°
2026-05-03 23:53 42.48146 -71.97933 29052 ft 426 kts 229°
2026-05-03 23:53 42.45953 -72.00845 29259 ft 427 kts 229°
2026-05-03 23:54 42.44482 -72.02796 29399 ft 428 kts 229°
2026-05-03 23:54 42.42257 -72.05747 29611 ft 429 kts 230°
2026-05-03 23:54 42.40043 -72.08680 29812 ft 430 kts 229°
2026-05-03 23:54 42.37068 -72.12615 30161 ft 430 kts 229°
2026-05-03 23:55 42.34831 -72.15570 30425 ft 429 kts 229°
2026-05-03 23:55 42.32601 -72.18513 30692 ft 428 kts 229°
2026-05-03 23:55 42.30380 -72.21438 30941 ft 427 kts 230°
2026-05-03 23:55 42.28164 -72.24356 31115 ft 425 kts 230°
2026-05-03 23:56 42.25940 -72.27284 31297 ft 424 kts 230°
2026-05-03 23:56 42.23768 -72.30139 31472 ft 423 kts 229°
2026-05-03 23:56 42.21588 -72.33004 31642 ft 422 kts 229°
2026-05-03 23:56 42.20129 -72.34918 31744 ft 422 kts 229°
2026-05-03 23:57 42.17193 -72.38766 31955 ft 421 kts 229°
2026-05-03 23:57 42.14977 -72.41670 32096 ft 421 kts 229°
2026-05-03 23:57 42.12752 -72.44581 32208 ft 421 kts 229°
2026-05-03 23:57 42.10525 -72.47489 32326 ft 422 kts 229°
2026-05-03 23:58 42.08373 -72.50298 32443 ft 422 kts 229°
2026-05-03 23:58 42.06189 -72.53147 32556 ft 423 kts 229°
2026-05-03 23:58 42.03933 -72.56084 32672 ft 423 kts 229°
2026-05-03 23:58 42.01712 -72.58974 32800 ft 423 kts 229°
2026-05-03 23:59 41.99471 -72.61888 32934 ft 423 kts 229°
2026-05-03 23:59 41.97218 -72.64814 33052 ft 423 kts 229°
2026-05-03 23:59 41.95078 -72.67587 33180 ft 424 kts 228°
2026-05-03 23:59 41.92955 -72.70373 33295 ft 423 kts 229°
2026-05-04 00:00 41.90843 -72.73255 33418 ft 423 kts 230°
2026-05-04 00:00 41.88734 -72.76158 33544 ft 423 kts 230°
2026-05-04 00:00 41.86657 -72.79014 33657 ft 423 kts 230°
2026-05-04 00:00 41.84625 -72.81803 33786 ft 423 kts 230°
2026-05-04 00:01 41.80381 -72.87605 33885 ft 424 kts 230°
2026-05-04 00:01 41.76067 -72.93481 33883 ft 424 kts 230°
2026-05-04 00:02 41.71780 -72.99307 33890 ft 424 kts 230°
2026-05-04 00:02 41.67519 -73.05086 33886 ft 423 kts 230°
2026-05-04 00:03 41.63252 -73.10861 33897 ft 423 kts 230°
2026-05-04 00:03 41.58968 -73.16648 33904 ft 422 kts 230°
2026-05-04 00:04 41.54630 -73.22497 33906 ft 422 kts 230°
2026-05-04 00:04 41.50286 -73.28340 33906 ft 422 kts 230°
2026-05-04 00:05 41.46049 -73.34055 33897 ft 422 kts 231°
2026-05-04 00:05 41.41831 -73.39816 33909 ft 422 kts 231°
2026-05-04 00:06 41.37577 -73.45616 33910 ft 421 kts 231°
2026-05-04 00:06 41.33324 -73.51395 33913 ft 422 kts 231°
2026-05-04 00:07 41.29080 -73.57208 33912 ft 421 kts 232°
2026-05-04 00:07 41.25124 -73.63479 33907 ft 419 kts 236°
2026-05-04 00:08 41.21415 -73.69576 33913 ft 419 kts 235°
2026-05-04 00:08 41.17722 -73.75638 33915 ft 418 kts 236°
2026-05-04 00:09 41.14003 -73.81762 33911 ft 417 kts 236°
2026-05-04 00:09 41.10303 -73.87990 33910 ft 415 kts 236°
2026-05-04 00:10 41.06577 -73.94256 33913 ft 415 kts 236°
2026-05-04 00:10 41.02830 -74.00537 33910 ft 417 kts 236°
2026-05-04 00:11 40.99673 -74.05819 33920 ft 416 kts 236°
2026-05-04 00:11 40.95269 -74.13169 33927 ft 415 kts 236°
2026-05-04 00:12 40.91528 -74.19396 33920 ft 415 kts 236°
2026-05-04 00:12 40.87880 -74.25457 33926 ft 415 kts 236°
2026-05-04 00:13 40.84268 -74.31447 33934 ft 414 kts 236°
2026-05-04 00:13 40.80540 -74.37617 33936 ft 414 kts 237°
2026-05-04 00:14 40.76704 -74.43951 33938 ft 414 kts 237°
2026-05-04 00:14 40.73572 -74.49114 33942 ft 414 kts 237°
2026-05-04 00:15 40.69182 -74.56340 33950 ft 412 kts 237°
2026-05-04 00:15 40.65384 -74.62579 33948 ft 412 kts 237°
2026-05-04 00:16 40.62277 -74.67670 33950 ft 413 kts 236°
2026-05-04 00:16 40.58003 -74.74545 33960 ft 415 kts 234°
2026-05-04 00:17 40.53951 -74.80320 33961 ft 415 kts 233°
2026-05-04 00:17 40.49883 -74.86085 33962 ft 414 kts 232°
2026-05-04 00:18 40.45707 -74.91983 33963 ft 414 kts 232°
2026-05-04 00:18 40.42259 -74.96838 33966 ft 412 kts 233°
2026-05-04 00:19 40.37445 -75.03608 33970 ft 411 kts 233°
2026-05-04 00:19 40.33380 -75.09313 33968 ft 411 kts 233°
2026-05-04 00:20 40.29296 -75.15036 33975 ft 410 kts 233°
2026-05-04 00:20 40.25864 -75.19838 33972 ft 410 kts 233°
2026-05-04 00:21 40.21121 -75.26460 33975 ft 411 kts 233°
2026-05-04 00:21 40.17039 -75.32151 33980 ft 410 kts 233°
2026-05-04 00:22 40.12969 -75.37808 33983 ft 408 kts 233°
2026-05-04 00:22 40.08896 -75.43459 33981 ft 408 kts 233°
2026-05-04 00:23 40.04858 -75.49054 33988 ft 409 kts 233°
2026-05-04 00:23 40.00783 -75.54692 33997 ft 407 kts 233°
2026-05-04 00:24 39.97418 -75.59337 33998 ft 405 kts 233°
2026-05-04 00:24 39.92713 -75.65834 33998 ft 404 kts 233°
2026-05-04 00:25 39.89091 -75.71431 33995 ft 402 kts 237°
2026-05-04 00:25 39.85529 -75.77120 33993 ft 402 kts 237°
2026-05-04 00:26 39.82569 -75.81845 33990 ft 402 kts 237°
2026-05-04 00:26 39.78335 -75.88593 33982 ft 401 kts 237°
2026-05-04 00:27 39.74701 -75.94373 33996 ft 401 kts 237°
2026-05-04 00:27 39.71046 -76.00177 34000 ft 398 kts 237°
2026-05-04 00:28 39.68001 -76.05009 33998 ft 398 kts 237°
2026-05-04 00:28 39.63704 -76.11812 33994 ft 396 kts 237°
2026-05-04 00:29 39.60707 -76.16542 33995 ft 395 kts 237°
2026-05-04 00:29 39.56425 -76.23176 34005 ft 395 kts 237°
2026-05-04 00:30 39.52723 -76.28858 34013 ft 393 kts 237°
2026-05-04 00:30 39.49039 -76.34511 34006 ft 393 kts 237°
2026-05-04 00:31 39.45932 -76.39117 34012 ft 395 kts 234°
2026-05-04 00:31 39.41245 -76.45285 34015 ft 395 kts 233°
2026-05-04 00:32 39.37913 -76.49652 34024 ft 396 kts 233°
2026-05-04 00:32 39.33840 -76.54979 34023 ft 395 kts 233°
2026-05-04 00:33 39.27776 -76.62885 34025 ft 393 kts 233°
2026-05-04 00:34 39.23207 -76.68826 34034 ft 392 kts 232°
2026-05-04 00:34 39.19976 -76.73023 34029 ft 392 kts 233°
2026-05-04 00:35 39.15345 -76.79025 34033 ft 391 kts 233°
2026-05-04 00:35 39.11386 -76.84149 34014 ft 391 kts 233°
2026-05-04 00:36 39.03371 -76.94498 34018 ft 390 kts 232°
2026-05-04 00:37 38.99331 -76.99696 34031 ft 390 kts 232°
2026-05-04 00:37 38.95320 -77.04858 34029 ft 388 kts 232°
2026-05-04 00:38 38.91367 -77.09939 34022 ft 387 kts 232°
2026-05-04 00:38 38.87470 -77.14943 34028 ft 388 kts 232°
2026-05-04 00:39 38.83623 -77.19869 34024 ft 388 kts 233°
2026-05-04 00:39 38.79615 -77.24999 34021 ft 388 kts 233°
2026-05-04 00:40 38.75611 -77.30115 34026 ft 389 kts 233°
2026-05-04 00:40 38.71398 -77.35266 34025 ft 390 kts 230°
2026-05-04 00:41 38.67121 -77.40218 34028 ft 389 kts 231°
2026-05-04 00:41 38.62897 -77.45103 34030 ft 389 kts 230°
2026-05-04 00:42 38.58617 -77.50040 34038 ft 389 kts 230°
2026-05-04 00:42 38.54327 -77.54977 34035 ft 389 kts 231°
2026-05-04 00:43 38.50048 -77.59897 34029 ft 389 kts 230°
2026-05-04 00:43 38.45872 -77.64690 34031 ft 389 kts 230°
2026-05-04 00:44 38.41797 -77.69359 34033 ft 389 kts 230°
2026-05-04 00:44 38.37649 -77.74104 34033 ft 389 kts 229°
2026-05-04 00:45 38.33419 -77.78934 34037 ft 389 kts 230°
2026-05-04 00:45 38.29192 -77.83753 34036 ft 389 kts 230°
2026-05-04 00:46 38.24951 -77.88580 34036 ft 388 kts 230°
2026-05-04 00:46 38.20735 -77.93369 34031 ft 388 kts 230°
2026-05-04 00:47 38.16554 -77.98114 34030 ft 388 kts 230°
2026-05-04 00:47 38.12282 -78.02957 34036 ft 388 kts 230°
2026-05-04 00:48 38.08065 -78.07726 34032 ft 388 kts 229°
2026-05-04 00:48 38.03856 -78.12477 34038 ft 388 kts 230°
2026-05-04 00:49 37.99858 -78.17470 34030 ft 383 kts 234°
2026-05-04 00:49 37.96171 -78.22709 34039 ft 383 kts 235°
2026-05-04 00:50 37.92427 -78.28023 34043 ft 384 kts 235°
2026-05-04 00:50 37.88727 -78.33273 34036 ft 384 kts 235°
2026-05-04 00:51 37.85127 -78.38381 34034 ft 384 kts 235°
2026-05-04 00:51 37.81492 -78.43528 34042 ft 384 kts 235°
2026-05-04 00:52 37.77863 -78.48664 34054 ft 383 kts 235°
2026-05-04 00:52 37.74190 -78.53851 34051 ft 384 kts 235°
2026-05-04 00:53 37.70500 -78.59052 34053 ft 383 kts 235°
2026-05-04 00:53 37.66763 -78.64313 34050 ft 384 kts 235°
2026-05-04 00:54 37.63122 -78.69433 34052 ft 385 kts 234°
2026-05-04 00:54 37.59390 -78.74666 34049 ft 386 kts 234°
2026-05-04 00:55 37.55648 -78.79914 34053 ft 386 kts 234°
2026-05-04 00:55 37.51971 -78.85056 34054 ft 385 kts 234°
2026-05-04 00:56 37.48320 -78.90154 34054 ft 386 kts 234°
2026-05-04 00:56 37.44544 -78.95419 34051 ft 387 kts 234°
2026-05-04 00:57 37.40816 -79.00612 34051 ft 388 kts 234°
2026-05-04 00:57 37.37035 -79.05869 34052 ft 388 kts 234°
2026-05-04 00:58 37.33226 -79.11155 34049 ft 388 kts 234°
2026-05-04 00:58 37.29356 -79.16513 34046 ft 388 kts 234°
2026-05-04 00:59 37.25435 -79.21578 34050 ft 393 kts 230°
2026-05-04 00:59 37.20997 -79.26242 34048 ft 398 kts 224°
2026-05-04 01:00 37.16346 -79.30473 34052 ft 399 kts 223°
2026-05-04 01:00 37.11662 -79.34712 34054 ft 399 kts 223°
2026-05-04 01:01 37.07099 -79.38823 34050 ft 399 kts 223°
2026-05-04 01:01 37.02366 -79.43079 34048 ft 399 kts 223°
2026-05-04 01:02 36.97542 -79.47222 34045 ft 401 kts 221°
2026-05-04 01:02 36.92626 -79.51347 34047 ft 401 kts 221°
2026-05-04 01:03 36.87769 -79.55439 34050 ft 401 kts 221°
2026-05-04 01:03 36.83050 -79.59411 34053 ft 402 kts 221°
2026-05-04 01:04 36.78320 -79.63385 33916 ft 402 kts 221°
2026-05-04 01:04 36.75830 -79.65469 33635 ft 400 kts 221°
2026-05-04 01:04 36.73483 -79.67431 33264 ft 399 kts 221°
2026-05-04 01:04 36.71224 -79.69322 32785 ft 397 kts 221°
2026-05-04 01:05 36.68834 -79.71323 32147 ft 397 kts 221°
2026-05-04 01:05 36.66441 -79.73323 31456 ft 398 kts 221°
2026-05-04 01:05 36.64039 -79.75331 30656 ft 401 kts 220°
2026-05-04 01:05 36.61564 -79.77403 29846 ft 404 kts 220°
2026-05-04 01:06 36.59167 -79.79402 29175 ft 403 kts 220°
2026-05-04 01:06 36.56756 -79.81408 28685 ft 398 kts 220°
2026-05-04 01:06 36.54392 -79.83372 28218 ft 394 kts 220°
2026-05-04 01:06 36.52031 -79.85335 27698 ft 390 kts 220°
2026-05-04 01:07 36.49708 -79.87266 27203 ft 386 kts 220°
2026-05-04 01:07 36.47407 -79.89177 26725 ft 382 kts 220°
2026-05-04 01:07 36.45112 -79.91081 26241 ft 378 kts 220°
2026-05-04 01:07 36.42808 -79.92995 25749 ft 375 kts 220°
2026-05-04 01:08 36.40562 -79.94859 25275 ft 371 kts 220°
2026-05-04 01:08 36.38304 -79.96729 24800 ft 368 kts 220°
2026-05-04 01:08 36.36064 -79.98584 24309 ft 365 kts 220°
2026-05-04 01:08 36.33848 -80.00415 24059 ft 355 kts 220°
2026-05-04 01:09 36.31679 -80.02205 23687 ft 354 kts 221°
2026-05-04 01:09 36.29517 -80.03994 23188 ft 352 kts 221°
2026-05-04 01:09 36.27396 -80.05744 22707 ft 351 kts 220°
2026-05-04 01:09 36.25325 -80.07452 22240 ft 349 kts 220°
2026-05-04 01:10 36.23195 -80.09205 21750 ft 348 kts 220°
2026-05-04 01:10 36.21085 -80.10941 21258 ft 348 kts 220°
2026-05-04 01:10 36.18983 -80.12672 20771 ft 347 kts 220°
2026-05-04 01:10 36.16883 -80.14401 20279 ft 347 kts 220°
2026-05-04 01:11 36.14733 -80.16169 19790 ft 346 kts 219°
2026-05-04 01:11 36.12678 -80.17857 19318 ft 347 kts 219°
2026-05-04 01:11 36.10575 -80.19582 18824 ft 347 kts 219°
2026-05-04 01:11 36.08422 -80.21349 18310 ft 347 kts 219°
2026-05-04 01:12 36.06367 -80.23032 17833 ft 347 kts 219°
2026-05-04 01:12 36.04255 -80.24761 17348 ft 347 kts 219°
2026-05-04 01:12 36.02135 -80.26496 16894 ft 346 kts 219°
2026-05-04 01:12 35.99997 -80.28243 16478 ft 342 kts 219°
2026-05-04 01:13 35.97907 -80.29948 16295 ft 332 kts 219°
2026-05-04 01:13 35.95801 -80.31668 15842 ft 331 kts 219°
2026-05-04 01:13 35.93775 -80.33326 15401 ft 330 kts 219°
2026-05-04 01:13 35.91746 -80.34984 14965 ft 329 kts 219°
2026-05-04 01:14 35.89741 -80.36618 14535 ft 328 kts 219°
2026-05-04 01:14 35.87819 -80.38187 14124 ft 326 kts 219°
2026-05-04 01:14 35.85876 -80.39767 13839 ft 320 kts 219°
2026-05-04 01:14 35.84030 -80.41263 13730 ft 308 kts 219°
2026-05-04 01:15 35.82291 -80.42807 13522 ft 299 kts 223°
2026-05-04 01:15 35.80527 -80.44504 13099 ft 299 kts 224°
2026-05-04 01:15 35.78827 -80.46155 12702 ft 299 kts 224°
2026-05-04 01:15 35.77059 -80.47866 12291 ft 298 kts 224°
2026-05-04 01:16 35.75306 -80.49457 11896 ft 300 kts 217°
2026-05-04 01:16 35.73340 -80.50642 11507 ft 305 kts 206°
2026-05-04 01:16 35.71244 -80.51500 11120 ft 306 kts 203°
2026-05-04 01:16 35.69021 -80.52337 10715 ft 305 kts 202°
2026-05-04 01:17 35.66907 -80.53131 10339 ft 303 kts 202°
2026-05-04 01:17 35.64732 -80.53957 9953 ft 302 kts 202°
2026-05-04 01:17 35.62605 -80.54772 9566 ft 301 kts 202°
2026-05-04 01:17 35.60452 -80.55601 9193 ft 299 kts 202°
2026-05-04 01:18 35.58389 -80.56489 8981 ft 287 kts 213°
2026-05-04 01:18 35.56957 -80.58178 8783 ft 265 kts 248°
2026-05-04 01:18 35.56608 -80.60439 8488 ft 251 kts 276°
2026-05-04 01:18 35.56729 -80.62727 8173 ft 249 kts 275°
2026-05-04 01:19 35.56797 -80.64991 7801 ft 249 kts 273°
2026-05-04 01:19 35.56817 -80.67146 7556 ft 245 kts 271°
2026-05-04 01:19 35.56814 -80.69253 7301 ft 241 kts 271°
2026-05-04 01:19 35.56798 -80.71338 7007 ft 240 kts 270°
2026-05-04 01:20 35.56783 -80.73437 6699 ft 239 kts 271°
2026-05-04 01:20 35.56800 -80.75602 6280 ft 243 kts 271°
2026-05-04 01:20 35.56836 -80.77794 5838 ft 247 kts 271°
2026-05-04 01:20 35.56888 -80.80036 5384 ft 251 kts 271°
2026-05-04 01:21 35.56802 -80.82263 4932 ft 255 kts 255°
2026-05-04 01:21 35.56085 -80.84446 4489 ft 258 kts 244°
2026-05-04 01:21 35.55220 -80.86596 4033 ft 262 kts 243°
2026-05-04 01:21 35.54385 -80.88655 3603 ft 266 kts 243°
2026-05-04 01:22 35.53341 -80.90661 3153 ft 267 kts 223°
2026-05-04 01:22 35.51783 -80.92014 3008 ft 258 kts 211°
2026-05-04 01:22 35.50191 -80.93063 2996 ft 244 kts 206°
2026-05-04 01:22 35.48605 -80.93937 2993 ft 231 kts 204°
2026-05-04 01:23 35.47101 -80.94709 2995 ft 229 kts 198°
2026-05-04 01:23 35.45406 -80.94916 2992 ft 227 kts 179°
2026-05-04 01:23 35.43809 -80.94780 2993 ft 219 kts 176°
2026-05-04 01:23 35.42248 -80.94649 2984 ft 208 kts 180°
2026-05-04 01:24 35.40740 -80.94634 2972 ft 193 kts 186°
2026-05-04 01:24 35.39370 -80.94788 3046 ft 172 kts 186°
2026-05-04 01:24 35.38092 -80.94851 3018 ft 168 kts 182°
2026-05-04 01:24 35.36876 -80.94823 3006 ft 168 kts 180°
2026-05-04 01:25 35.35674 -80.94747 3005 ft 168 kts 179°
2026-05-04 01:25 35.34514 -80.94652 2963 ft 152 kts 178°
2026-05-04 01:25 35.33435 -80.94557 2868 ft 149 kts 179°
2026-05-04 01:25 35.32348 -80.94463 2647 ft 146 kts 179°
2026-05-04 01:26 35.31281 -80.94371 2436 ft 144 kts 179°
2026-05-04 01:26 35.30241 -80.94280 2230 ft 144 kts 178°
2026-05-04 01:26 35.29194 -80.94159 2037 ft 143 kts 176°
2026-05-04 01:26 35.28160 -80.94001 1841 ft 143 kts 178°
2026-05-04 01:27 35.27143 -80.93963 1646 ft 142 kts 182°
2026-05-04 01:27 35.26117 -80.93908 1356 ft 140 kts 179°
2026-05-04 01:27 35.25107 -80.93831 1265 ft 143 kts 177°
2026-05-04 01:27 35.24108 -80.93743 1099 ft 143 kts 178°
2026-05-04 01:28 35.23109 -80.93653 929 ft 144 kts 178°
2026-05-04 01:28 35.22108 -80.93591 738 ft 143 kts 173°
2026-05-04 01:28 35.21341 -80.93520 727 ft 68 kts 176°
2026-05-04 01:28 35.21013 -80.93517 721 ft 25 kts 188°
2026-05-04 01:29 35.20910 -80.93544 720 ft 10 kts 203°
2026-05-04 01:29 35.20904 -80.93547 720 ft 0 kts 203°
2026-05-04 01:30 35.20903 -80.93548 720 ft 1 kts 203°
2026-05-04 01:30 35.20890 -80.93571 720 ft 3 kts 272°
2026-05-04 01:30 35.20913 -80.93602 720 ft 7 kts 331°
2026-05-04 01:30 35.20966 -80.93619 721 ft 7 kts 352°
2026-05-04 01:31 35.21018 -80.93627 722 ft 7 kts 353°
2026-05-04 01:31 35.21068 -80.93633 723 ft 6 kts 357°
2026-05-04 01:31 35.21115 -80.93635 723 ft 6 kts 358°
2026-05-04 01:31 35.21160 -80.93637 724 ft 6 kts 358°
2026-05-04 01:32 35.21202 -80.93639 725 ft 6 kts 356°
2026-05-04 01:32 35.21296 -80.93648 726 ft 14 kts 356°
2026-05-04 01:32 35.21392 -80.93665 728 ft 12 kts 336°
2026-05-04 01:32 35.21464 -80.93727 729 ft 12 kts 321°
2026-05-04 01:33 35.21529 -80.93797 729 ft 12 kts 318°
2026-05-04 01:33 35.21590 -80.93865 729 ft 11 kts 317°
2026-05-04 01:33 35.21653 -80.93934 729 ft 12 kts 320°
2026-05-04 01:33 35.21720 -80.94003 729 ft 12 kts 320°
2026-05-04 01:34 35.21780 -80.94051 729 ft 7 kts 334°
2026-05-04 01:34 35.21827 -80.94078 729 ft 7 kts 335°
2026-05-04 01:34 35.21858 -80.94095 730 ft 0 kts 336°
2026-05-04 01:34 35.21865 -80.94100 730 ft 2 kts 321°
2026-05-04 01:35 35.21870 -80.94123 729 ft 3 kts 268°
2026-05-04 01:35 35.21866 -80.94159 729 ft 5 kts 253°
2026-05-04 01:35 35.21862 -80.94174 728 ft 0 kts 254°
2026-05-04 01:35 35.21861 -80.94178 728 ft 0 kts 253°